| time (UTC) | temp C | wind direction | speed KPH | gust KPH | rain 1hr cm | rain 24hr cm | rain mn cm | humidity % | barometer mb |
| 20260901131558 | 24 | 262 | 24.1 | 37.0 | 0.00 | 0.00 | 0.00 | 44 | 1019.1 |
| 20260901130057 | 24 | 243 | 24.1 | 37.0 | 0.00 | 0.00 | 0.00 | 44 | 1019.1 |
| 20260901124550 | 24 | 242 | 24.1 | 35.4 | 0.00 | 0.00 | 0.00 | 43 | 1019.2 |
| 20260901123101 | 24 | 252 | 24.1 | 38.6 | 0.00 | 0.00 | 0.00 | 42 | 1019.2 |
| 20260901121605 | 24 | 243 | 22.5 | 33.8 | 0.00 | 0.00 | 0.00 | 43 | 1019.2 |
| 20260901120106 | 23 | 258 | 25.7 | 38.6 | 0.00 | 0.00 | 0.00 | 42 | 1019.3 |
| 20260901114552 | 23 | 242 | 24.1 | 33.8 | 0.00 | 0.00 | 0.00 | 45 | 1019.5 |
| 20260901113051 | 24 | 242 | 25.7 | 40.2 | 0.00 | 0.00 | 0.00 | 45 | 1019.4 |
| 20260901111604 | 23 | 250 | 25.7 | 38.6 | 0.00 | 0.00 | 0.00 | 45 | 1019.5 |
| 20260901110058 | 23 | 259 | 29.0 | 40.2 | 0.00 | 0.00 | 0.00 | 44 | 1019.3 |
| 20260901104554 | 24 | 235 | 27.4 | 43.5 | 0.00 | 0.00 | 0.00 | 44 | 1019.5 |
| 20260901103056 | 23 | 257 | 27.4 | 38.6 | 0.00 | 0.00 | 0.00 | 44 | 1019.6 |
| 20260901101556 | 23 | 245 | 25.7 | 41.8 | 0.00 | 0.00 | 0.00 | 45 | 1019.5 |
| 20260901094549 | 23 | 250 | 29.0 | 45.1 | 0.00 | 0.00 | 0.00 | 47 | 1019.3 |
| 20260901093057 | 22 | 250 | 29.0 | 45.1 | 0.00 | 0.00 | 0.00 | 48 | 1019.2 |
| 20260901091552 | 23 | 261 | 30.6 | 43.5 | 0.00 | 0.00 | 0.00 | 50 | 1019.1 |
| 20260901090049 | 22 | 249 | 29.0 | 41.8 | 0.00 | 0.00 | 0.00 | 51 | 1019.2 |
| 20260901084552 | 22 | 242 | 27.4 | 37.0 | 0.00 | 0.00 | 0.00 | 52 | 1019.3 |
| 20260901083056 | 22 | 233 | 27.4 | 37.0 | 0.00 | 0.00 | 0.00 | 53 | 1019.1 |
| 20260901081552 | 22 | 241 | 29.0 | 40.2 | 0.00 | 0.00 | 0.00 | 54 | 1019.2 |
| 20260901080106 | 22 | 255 | 24.1 | 35.4 | 0.00 | 0.00 | 0.00 | 57 | 1019.0 |
| 20260901074621 | 22 | 249 | 20.9 | 30.6 | 0.00 | 0.00 | 0.00 | 57 | 1019.1 |
| 20260901073055 | 21 | 245 | 16.1 | 27.4 | 0.00 | 0.00 | 0.00 | 59 | 1018.9 |
| 20260901071550 | 21 | 289 | 11.3 | 24.1 | 0.00 | 0.00 | 0.00 | 59 | 1018.7 |
| 20260901070055 | 20 | 302 | 4.8 | 12.9 | 0.00 | 0.00 | 0.00 | 60 | 1018.7 |
| 20260901064551 | 21 | 238 | 4.8 | 16.1 | 0.00 | 0.00 | 0.00 | 60 | 1018.5 |
| 20260901063056 | 20 | 262 | 3.2 | 16.1 | 0.00 | 0.00 | 0.00 | 60 | 1018.5 |
| 20260901061558 | 20 | 221 | 9.7 | 16.1 | 0.00 | 0.00 | 0.00 | 64 | 1018.5 |
| 20260901060057 | 18 | 236 | 4.8 | 12.9 | 0.00 | 0.00 | 0.00 | 70 | 1018.5 |
| 20260901054552 | 18 | 230 | 3.2 | 6.4 | 0.00 | 0.00 | 0.00 | 78 | 1018.6 |
| 20260901053058 | 16 | 229 | 4.8 | 8.0 | 0.00 | 0.00 | 0.00 | 82 | 1018.5 |
| 20260901051606 | 15 | 265 | 8.0 | 12.9 | 0.00 | 0.00 | 0.00 | 82 | 1018.4 |
| 20260901050104 | 15 | 328 | 3.2 | 8.0 | 0.00 | 0.00 | 0.00 | 83 | 1018.2 |
| 20260901044606 | 15 | 351 | 4.8 | 9.7 | 0.00 | 0.00 | 0.00 | 84 | 1018.2 |
| 20260901043049 | 15 | 263 | 6.4 | 11.3 | 0.00 | 0.00 | 0.00 | 83 | 1018.0 |
| 20260901041613 | 15 | 184 | 1.6 | 4.8 | 0.00 | 0.00 | 0.00 | 81 | 1018.0 |
| 20260901040133 | 16 | 184 | 1.6 | 4.8 | 0.00 | 0.00 | 0.00 | 80 | 1017.9 |
| 20260901034609 | 16 | 183 | 4.8 | 16.1 | 0.00 | 0.00 | 0.00 | 78 | 1017.8 |
| 20260901033049 | 16 | 132 | 12.9 | 20.9 | 0.00 | 0.00 | 0.00 | 81 | 1017.5 |
| 20260901031558 | 15 | 110 | 9.7 | 14.5 | 0.00 | 0.00 | 0.00 | 84 | 1017.4 |
| 20260901030052 | 16 | 103 | 3.2 | 8.0 | 0.00 | 0.00 | 0.00 | 83 | 1017.4 |
| 20260901024554 | 16 | 53 | 4.8 | 12.9 | 0.00 | 0.00 | 0.00 | 84 | 1017.4 |
| 20260901023055 | 16 | 55 | 4.8 | 16.1 | 0.00 | 0.00 | 0.00 | 84 | 1017.3 |
| 20260901021552 | 15 | 49 | 3.2 | 12.9 | 0.00 | 0.00 | 0.00 | 84 | 1017.3 |
| 20260901020055 | 15 | 279 | 9.7 | 16.1 | 0.00 | 0.00 | 0.00 | 83 | 1017.7 |
| 20260901014602 | 16 | 153 | 0.0 | 8.0 | 0.00 | 0.00 | 0.00 | 82 | 1017.2 |
| 20260901013101 | 16 | 153 | 4.8 | 8.0 | 0.00 | 0.00 | 0.00 | 83 | 1017.2 |
| 20260901011551 | 16 | 182 | 3.2 | 11.3 | 0.00 | 0.00 | 0.00 | 84 | 1017.8 |
| 20260901010114 | 16 | 69 | 8.0 | 14.5 | 0.00 | 0.00 | 0.00 | 85 | 1017.9 |
| 20260901004556 | 14 | 306 | 6.4 | 11.3 | 0.00 | 0.00 | 0.00 | 84 | 1017.9 |
| 20260901003105 | 15 | 345 | 4.8 | 8.0 | 0.00 | 0.00 | 0.00 | 83 | 1017.7 |
| 20260901001558 | 16 | 78 | 0.0 | 9.7 | 0.00 | 0.00 | 0.00 | 84 | 1017.4 |
| 20260901000055 | 16 | 44 | 4.8 | 8.0 | 0.00 | 0.00 | 0.00 | 85 | 1017.5 |
| 20260831234602 | 15 | 0 | 0.0 | 6.4 | 0.00 | 0.00 | 0.00 | 86 | 1017.7 |
| 20260831233049 | 15 | 290 | 1.6 | 4.8 | 0.00 | 0.00 | 0.00 | 85 | 1017.6 |
| 20260831231558 | 15 | 294 | 3.2 | 6.4 | 0.00 | 0.00 | 0.00 | 85 | 1017.4 |
| 20260831230111 | 15 | 0 | 0.0 | 4.8 | 0.00 | 0.00 | 0.00 | 85 | 1017.4 |
| 20260831224553 | 15 | 300 | 3.2 | 6.4 | 0.00 | 0.00 | 0.00 | 84 | 1017.7 |
| 20260831223106 | 15 | 5 | 3.2 | 6.4 | 0.00 | 0.00 | 0.00 | 84 | 1017.6 |
| 20260831221556 | 15 | 0 | 0.0 | 4.8 | 0.00 | 0.00 | 0.00 | 83 | 1017.6 |
| 20260831220050 | 16 | 334 | 3.2 | 6.4 | 0.00 | 0.00 | 0.00 | 81 | 1017.6 |
| 20260831214608 | 17 | 334 | 3.2 | 6.4 | 0.00 | 0.00 | 0.00 | 80 | 1017.4 |
| 20260831213051 | 17 | 98 | 1.6 | 6.4 | 0.00 | 0.00 | 0.00 | 79 | 1017.5 |
| 20260831211552 | 17 | 33 | 1.6 | 6.4 | 0.00 | 0.00 | 0.00 | 79 | 1017.6 |
| 20260831210047 | 17 | 30 | 1.6 | 9.7 | 0.00 | 0.00 | 0.00 | 79 | 1017.6 |
| 20260831204554 | 18 | 242 | 1.6 | 4.8 | 0.00 | 0.00 | 0.00 | 78 | 1017.4 |
| 20260831203055 | 18 | 196 | 1.6 | 8.0 | 0.00 | 0.00 | 0.00 | 79 | 1017.3 |
| 20260831201551 | 18 | 272 | 1.6 | 9.7 | 0.00 | 0.00 | 0.00 | 77 | 1017.2 |
| 20260831200104 | 19 | 320 | 3.2 | 6.4 | 0.00 | 0.00 | 0.00 | 73 | 1017.0 |
| 20260831194624 | 20 | 49 | 4.8 | 6.4 | 0.00 | 0.00 | 0.00 | 72 | 1016.7 |
| 20260831193050 | 20 | 61 | 3.2 | 9.7 | 0.00 | 0.00 | 0.00 | 71 | 1016.7 |
| 20260831191556 | 20 | 48 | 3.2 | 8.0 | 0.00 | 0.00 | 0.00 | 71 | 1016.7 |
| 20260831184550 | 20 | 81 | 3.2 | 6.4 | 0.00 | 0.00 | 0.00 | 69 | 1016.6 |
| 20260831183108 | 20 | 87 | 1.6 | 9.7 | 0.00 | 0.00 | 0.00 | 70 | 1016.5 |
| 20260831181557 | 20 | 295 | 1.6 | 4.8 | 0.00 | 0.00 | 0.00 | 70 | 1016.3 |
| 20260831180109 | 20 | 294 | 3.2 | 8.0 | 0.00 | 0.00 | 0.00 | 68 | 1016.1 |
| 20260831174601 | 21 | 280 | 6.4 | 9.7 | 0.00 | 0.00 | 0.00 | 66 | 1015.9 |
| 20260831173058 | 22 | 259 | 4.8 | 6.4 | 0.00 | 0.00 | 0.00 | 64 | 1015.8 |
| 20260831171553 | 23 | 254 | 1.6 | 4.8 | 0.00 | 0.00 | 0.00 | 59 | 1015.9 |
| 20260831170104 | 23 | 254 | 4.8 | 8.0 | 0.00 | 0.00 | 0.00 | 55 | 1015.9 |
| 20260831164550 | 25 | 258 | 4.8 | 12.9 | 0.00 | 0.00 | 0.00 | 52 | 1015.8 |
| 20260831163051 | 25 | 236 | 4.8 | 14.5 | 0.00 | 0.00 | 0.00 | 48 | 1015.9 |
| 20260831161603 | 26 | 246 | 11.3 | 20.9 | 0.00 | 0.00 | 0.00 | 46 | 1015.8 |
| 20260831160058 | 26 | 250 | 14.5 | 27.4 | 0.00 | 0.00 | 0.00 | 44 | 1015.8 |
| 20260831154618 | 27 | 242 | 17.7 | 29.0 | 0.00 | 0.00 | 0.00 | 42 | 1015.8 |
| 20260831153052 | 26 | 218 | 12.9 | 24.1 | 0.00 | 0.00 | 0.00 | 45 | 1015.9 |
| 20260831151615 | 27 | 232 | 11.3 | 20.9 | 0.00 | 0.00 | 0.00 | 41 | 1016.0 |
| 20260831150055 | 28 | 211 | 19.3 | 29.0 | 0.00 | 0.00 | 0.00 | 39 | 1015.9 |
| 20260831144552 | 27 | 219 | 22.5 | 32.2 | 0.00 | 0.00 | 0.00 | 42 | 1016.1 |
| 20260831143050 | 27 | 228 | 9.7 | 17.7 | 0.00 | 0.00 | 0.00 | 42 | 1016.0 |
| 20260831141548 | 27 | 266 | 11.3 | 22.5 | 0.00 | 0.00 | 0.00 | 43 | 1016.2 |
| 20260831140058 | 27 | 229 | 14.5 | 25.7 | 0.00 | 0.00 | 0.00 | 43 | 1016.3 |
| 20260831134554 | 27 | 232 | 9.7 | 27.4 | 0.00 | 0.00 | 0.00 | 41 | 1016.3 |
| 20260831133052 | 28 | 219 | 22.5 | 32.2 | 0.00 | 0.00 | 0.00 | 38 | 1016.4 |